Location: Zagreb
(45.8000°N, 16.0000°E)
Time: 02:34:40
(UTC+01:00)

ISS - Visible Passes

Search period start: 29 February 2024 00:00
Search period end: 10 March 2024 00:00
Orbit: 414 x 422 km, 51.6° (Epoch: 28 February)

Date Brightness Start Highest point End Pass type
(mag) Time Alt. Az. Time Alt. Az. Time Alt. Az.
29 Feb -2.2 04:35:01 29° N 04:35:01 29° N 04:37:59 10° ENE visible
01 Mar -0.8 03:48:57 16° NE 03:48:57 16° NE 03:49:55 10° ENE visible
01 Mar -2.8 05:21:53 17° NW 05:24:12 41° NNE 05:27:27 10° E visible
02 Mar -2.5 04:35:48 33° N 04:36:08 34° NNE 04:39:17 10° E visible
03 Mar -1.0 03:49:45 19° NE 03:49:45 19° NE 03:51:04 10° ENE visible
03 Mar -3.6 05:22:41 17° WNW 05:25:09 76° NNE 05:28:32 10° ESE visible
04 Mar -3.2 04:36:39 49° N 04:37:04 53° NNE 04:40:24 10° E visible
05 Mar -1.2 03:50:41 22° ENE 03:50:41 22° ENE 03:52:09 10° E visible
05 Mar -3.4 05:23:37 19° WNW 05:25:46 47° SW 05:29:01 10° SE visible
06 Mar -3.9 04:37:42 75° SSW 04:37:42 75° SSW 04:41:04 10° SE visible
07 Mar -1.2 03:51:54 18° ESE 03:51:54 18° ESE 03:52:56 10° ESE visible
07 Mar -2.2 05:24:51 17° WSW 05:26:02 20° SW 05:28:33 10° S visible
08 Mar -2.2 04:39:10 24° S 04:39:10 24° S 04:41:01 10° SSE visible
